Year,Month,Day,Hour,Minute,Value (Times are PST for temperature in C)
2020,12,06,00,00,6.50
2020,12,06,00,01,6.50
2020,12,06,00,02,6.50
2020,12,06,00,03,6.50
2020,12,06,00,04,6.50
2020,12,06,00,05,6.40
2020,12,06,00,06,6.40
2020,12,06,00,07,6.40
2020,12,06,00,08,6.40
2020,12,06,00,09,6.40
2020,12,06,00,10,6.40
2020,12,06,00,11,6.40
2020,12,06,00,12,6.40
2020,12,06,00,13,6.30
2020,12,06,00,14,6.30
2020,12,06,00,15,6.30
2020,12,06,00,16,6.30
2020,12,06,00,17,6.30
2020,12,06,00,18,6.30
2020,12,06,00,19,6.30
2020,12,06,00,20,6.30
2020,12,06,00,21,6.30
2020,12,06,00,22,6.30
2020,12,06,00,23,6.30
2020,12,06,00,24,6.30
2020,12,06,00,25,6.20
2020,12,06,00,26,6.20
2020,12,06,00,27,6.20
2020,12,06,00,28,6.20
2020,12,06,00,29,6.20
2020,12,06,00,30,6.20
2020,12,06,00,31,6.20
2020,12,06,00,32,6.20
2020,12,06,00,33,6.20
2020,12,06,00,34,6.20
2020,12,06,00,35,6.20
2020,12,06,00,36,6.20
2020,12,06,00,37,6.20
2020,12,06,00,38,6.20
2020,12,06,00,39,6.30
2020,12,06,00,40,6.30
2020,12,06,00,41,6.30
2020,12,06,00,42,6.30
2020,12,06,00,43,6.30
2020,12,06,00,44,6.30
2020,12,06,00,45,6.30
2020,12,06,00,46,6.30
2020,12,06,00,47,6.30
2020,12,06,00,48,6.30
2020,12,06,00,49,6.30
2020,12,06,00,50,6.40
2020,12,06,00,51,6.40
2020,12,06,00,52,6.40
2020,12,06,00,53,6.40
2020,12,06,00,54,6.50
2020,12,06,00,55,6.50
2020,12,06,00,56,6.60
2020,12,06,00,57,6.60
2020,12,06,00,58,6.60
2020,12,06,00,59,6.60
2020,12,06,01,00,6.60
2020,12,06,01,01,6.60
2020,12,06,01,02,6.60
2020,12,06,01,03,6.60
2020,12,06,01,04,6.70
2020,12,06,01,05,6.70
2020,12,06,01,06,6.70
2020,12,06,01,07,6.70
2020,12,06,01,08,6.70
2020,12,06,01,09,6.70
2020,12,06,01,10,6.70
2020,12,06,01,11,6.80
2020,12,06,01,12,6.80
2020,12,06,01,13,6.80
2020,12,06,01,14,6.90
2020,12,06,01,15,6.90
2020,12,06,01,16,6.90
2020,12,06,01,17,6.90
2020,12,06,01,18,6.90
2020,12,06,01,19,6.90
2020,12,06,01,20,6.90
2020,12,06,01,21,6.90
2020,12,06,01,22,6.90
2020,12,06,01,23,6.90
2020,12,06,01,24,6.90
2020,12,06,01,25,6.80
2020,12,06,01,26,6.80
2020,12,06,01,27,6.80
2020,12,06,01,28,6.80
2020,12,06,01,29,6.80
2020,12,06,01,30,6.80
2020,12,06,01,31,6.70
2020,12,06,01,32,6.70
2020,12,06,01,33,6.70
2020,12,06,01,34,6.70
2020,12,06,01,35,6.70
2020,12,06,01,36,6.70
2020,12,06,01,37,6.60
2020,12,06,01,38,6.60
2020,12,06,01,39,6.60
2020,12,06,01,40,6.60
2020,12,06,01,41,6.60
2020,12,06,01,42,6.60
2020,12,06,01,43,6.50
2020,12,06,01,44,6.50
2020,12,06,01,45,6.50
2020,12,06,01,46,6.50
2020,12,06,01,47,6.50
2020,12,06,01,48,6.50
2020,12,06,01,49,6.50
2020,12,06,01,50,6.40
2020,12,06,01,51,6.40
2020,12,06,01,52,6.40
2020,12,06,01,53,6.40
2020,12,06,01,54,6.40
2020,12,06,01,55,6.40
2020,12,06,01,56,6.40
2020,12,06,01,57,6.40
2020,12,06,01,58,6.40
2020,12,06,01,59,6.30
2020,12,06,02,00,6.30
2020,12,06,02,01,6.30
2020,12,06,02,02,6.30
2020,12,06,02,03,6.30
2020,12,06,02,04,6.30
2020,12,06,02,05,6.30
2020,12,06,02,06,6.30
2020,12,06,02,07,6.30
2020,12,06,02,08,6.30
2020,12,06,02,09,6.30
2020,12,06,02,10,6.30
2020,12,06,02,11,6.40
2020,12,06,02,12,6.40
2020,12,06,02,13,6.40
2020,12,06,02,14,6.40
2020,12,06,02,15,6.40
2020,12,06,02,16,6.40
2020,12,06,02,17,6.40
2020,12,06,02,18,6.40
2020,12,06,02,19,6.40
2020,12,06,02,20,6.40
2020,12,06,02,21,6.40
2020,12,06,02,22,6.40
2020,12,06,02,23,6.40
2020,12,06,02,24,6.40
2020,12,06,02,25,6.40
2020,12,06,02,26,6.40
2020,12,06,02,27,6.40
2020,12,06,02,28,6.40
2020,12,06,02,29,6.30
2020,12,06,02,30,6.30
2020,12,06,02,31,6.40
2020,12,06,02,32,6.40
2020,12,06,02,33,6.40
2020,12,06,02,34,6.40
2020,12,06,02,35,6.40
2020,12,06,02,36,6.40
2020,12,06,02,37,6.40
2020,12,06,02,38,6.40
2020,12,06,02,39,6.40
2020,12,06,02,40,6.50
2020,12,06,02,41,6.50
2020,12,06,02,42,6.50
2020,12,06,02,43,6.50
2020,12,06,02,44,6.50
2020,12,06,02,45,6.50
2020,12,06,02,46,6.60
2020,12,06,02,47,6.60
2020,12,06,02,48,6.60
2020,12,06,02,49,6.60
2020,12,06,02,50,6.70
2020,12,06,02,51,6.70
2020,12,06,02,52,6.70
2020,12,06,02,53,6.70
2020,12,06,02,54,6.80
2020,12,06,02,55,6.80
2020,12,06,02,56,6.80
2020,12,06,02,57,6.80
2020,12,06,02,58,6.80
2020,12,06,02,59,6.80
2020,12,06,03,00,6.90
2020,12,06,03,01,6.90
2020,12,06,03,02,6.90
2020,12,06,03,03,6.90
2020,12,06,03,04,6.90
2020,12,06,03,05,7.00
2020,12,06,03,06,7.00
2020,12,06,03,07,7.10
2020,12,06,03,08,7.10
2020,12,06,03,09,7.10
2020,12,06,03,10,7.10
2020,12,06,03,11,7.10
2020,12,06,03,12,7.10
2020,12,06,03,13,7.10
2020,12,06,03,14,7.10
2020,12,06,03,15,7.10
2020,12,06,03,16,7.10
2020,12,06,03,17,7.10
2020,12,06,03,18,7.10
2020,12,06,03,19,7.10
2020,12,06,03,20,7.10
2020,12,06,03,21,7.10
2020,12,06,03,22,7.10
2020,12,06,03,23,7.10
2020,12,06,03,24,7.10
2020,12,06,03,25,7.10
2020,12,06,03,26,7.10
2020,12,06,03,27,7.10
2020,12,06,03,28,7.10
2020,12,06,03,29,7.10
2020,12,06,03,30,7.10
2020,12,06,03,31,7.10
2020,12,06,03,32,7.10
2020,12,06,03,33,7.10
2020,12,06,03,34,7.10
2020,12,06,03,35,7.10
2020,12,06,03,36,7.10
2020,12,06,03,37,7.10
2020,12,06,03,38,7.10
2020,12,06,03,39,7.10
2020,12,06,03,40,7.10
2020,12,06,03,41,7.10
2020,12,06,03,42,7.10
2020,12,06,03,43,7.10
2020,12,06,03,44,7.00
2020,12,06,03,45,7.00
2020,12,06,03,46,7.00
2020,12,06,03,47,7.00
2020,12,06,03,48,7.00
2020,12,06,03,49,7.00
2020,12,06,03,50,7.00
2020,12,06,03,51,7.00
2020,12,06,03,52,6.90
2020,12,06,03,53,6.90
2020,12,06,03,54,6.90
2020,12,06,03,55,6.90
2020,12,06,03,56,6.90
2020,12,06,03,57,6.90
2020,12,06,03,58,6.90
2020,12,06,03,59,6.90
2020,12,06,04,00,6.90
2020,12,06,04,01,6.80
2020,12,06,04,02,6.80
2020,12,06,04,03,6.80
2020,12,06,04,04,6.80
2020,12,06,04,05,6.80
2020,12,06,04,06,6.80
2020,12,06,04,07,6.80
2020,12,06,04,08,6.80
2020,12,06,04,09,6.80
2020,12,06,04,10,6.80
2020,12,06,04,11,6.80
2020,12,06,04,12,6.80
2020,12,06,04,13,6.80
2020,12,06,04,14,6.80
2020,12,06,04,15,6.80
2020,12,06,04,16,6.80
2020,12,06,04,17,6.80
2020,12,06,04,18,6.80
2020,12,06,04,19,6.80
2020,12,06,04,20,6.80
2020,12,06,04,21,6.80
2020,12,06,04,22,6.80
2020,12,06,04,23,6.90
2020,12,06,04,24,6.90
2020,12,06,04,25,6.90
2020,12,06,04,26,6.90
2020,12,06,04,27,6.90
2020,12,06,04,28,6.90
2020,12,06,04,29,6.90
2020,12,06,04,30,6.90
2020,12,06,04,31,6.90
2020,12,06,04,32,6.90
2020,12,06,04,33,6.90
2020,12,06,04,34,7.00
2020,12,06,04,35,7.00
2020,12,06,04,36,7.10
2020,12,06,04,37,7.10
2020,12,06,04,38,7.10
2020,12,06,04,39,7.20
2020,12,06,04,40,7.20
2020,12,06,04,41,7.20
2020,12,06,04,42,7.30
2020,12,06,04,43,7.30
2020,12,06,04,44,7.30
2020,12,06,04,45,7.40
2020,12,06,04,46,7.40
2020,12,06,04,47,7.40
2020,12,06,04,48,7.50
2020,12,06,04,49,7.50
2020,12,06,04,50,7.50
2020,12,06,04,51,7.50
2020,12,06,04,52,7.60
2020,12,06,04,53,7.60
2020,12,06,04,54,7.60
2020,12,06,04,55,7.60
2020,12,06,04,56,7.60
2020,12,06,04,57,7.60
2020,12,06,04,58,7.60
2020,12,06,04,59,7.60
2020,12,06,05,00,7.60
2020,12,06,05,01,7.60
2020,12,06,05,02,7.60
2020,12,06,05,03,7.60
2020,12,06,05,04,7.50
2020,12,06,05,05,7.50
2020,12,06,05,06,7.50
2020,12,06,05,07,7.40
2020,12,06,05,08,7.40
2020,12,06,05,09,7.40
2020,12,06,05,10,7.40
2020,12,06,05,11,7.40
2020,12,06,05,12,7.40
2020,12,06,05,13,7.40
2020,12,06,05,14,7.40
2020,12,06,05,15,7.40
2020,12,06,05,16,7.40
2020,12,06,05,17,7.40
2020,12,06,05,18,7.40
2020,12,06,05,19,7.40
2020,12,06,05,20,7.40
2020,12,06,05,21,7.40
2020,12,06,05,22,7.40
2020,12,06,05,23,7.40
2020,12,06,05,24,7.40
2020,12,06,05,25,7.40
2020,12,06,05,26,7.40
2020,12,06,05,27,7.40
2020,12,06,05,28,7.40
2020,12,06,05,29,7.40
2020,12,06,05,30,7.40
2020,12,06,05,31,7.40
2020,12,06,05,32,7.40
2020,12,06,05,33,7.40
2020,12,06,05,34,7.40
2020,12,06,05,35,7.40
2020,12,06,05,36,7.40
2020,12,06,05,37,7.40
2020,12,06,05,38,7.40
2020,12,06,05,39,7.40
2020,12,06,05,40,7.40
2020,12,06,05,41,7.40
2020,12,06,05,42,7.40
2020,12,06,05,43,7.40
2020,12,06,05,44,7.40
2020,12,06,05,45,7.40
2020,12,06,05,46,7.40
2020,12,06,05,47,7.40
2020,12,06,05,48,7.40
2020,12,06,05,49,7.40
2020,12,06,05,50,7.40
2020,12,06,05,51,7.40
2020,12,06,05,52,7.40
2020,12,06,05,53,7.40
2020,12,06,05,54,7.40
2020,12,06,05,55,7.40
2020,12,06,05,56,7.50
2020,12,06,05,57,7.60
2020,12,06,05,58,7.80
2020,12,06,05,59,8.00
2020,12,06,06,00,8.10
2020,12,06,06,01,8.30
2020,12,06,06,02,8.40
2020,12,06,06,03,8.60
2020,12,06,06,04,8.70
2020,12,06,06,05,8.80
2020,12,06,06,06,9.00
2020,12,06,06,07,9.00
2020,12,06,06,08,9.10
2020,12,06,06,09,9.20
2020,12,06,06,10,9.20
2020,12,06,06,11,9.30
2020,12,06,06,12,9.30
2020,12,06,06,13,9.30
2020,12,06,06,14,9.30
2020,12,06,06,15,9.30
2020,12,06,06,16,9.30
2020,12,06,06,17,9.40
2020,12,06,06,18,9.40
2020,12,06,06,19,9.40
2020,12,06,06,20,9.40
2020,12,06,06,21,9.40
2020,12,06,06,22,9.40
2020,12,06,06,23,9.40
2020,12,06,06,24,9.40
2020,12,06,06,25,9.40
2020,12,06,06,26,9.40
2020,12,06,06,27,9.40
2020,12,06,06,28,9.40
2020,12,06,06,29,9.30
2020,12,06,06,30,9.30
2020,12,06,06,31,9.30
2020,12,06,06,32,9.30
2020,12,06,06,33,9.30
2020,12,06,06,34,9.30
2020,12,06,06,35,9.30
2020,12,06,06,36,9.20
2020,12,06,06,37,9.20
2020,12,06,06,38,9.20
2020,12,06,06,39,9.20
2020,12,06,06,40,9.10
2020,12,06,06,41,9.10
2020,12,06,06,42,9.10
2020,12,06,06,43,9.00
2020,12,06,06,44,9.00
2020,12,06,06,45,8.90
2020,12,06,06,46,8.90
2020,12,06,06,47,8.80
2020,12,06,06,48,8.80
2020,12,06,06,49,8.80
2020,12,06,06,50,8.70
2020,12,06,06,51,8.70
2020,12,06,06,52,8.70
2020,12,06,06,53,8.70
2020,12,06,06,54,8.60
2020,12,06,06,55,8.60
2020,12,06,06,56,8.60
2020,12,06,06,57,8.50
2020,12,06,06,58,8.50
2020,12,06,06,59,8.40
2020,12,06,07,00,8.40
2020,12,06,07,01,8.40
2020,12,06,07,02,8.40
2020,12,06,07,03,8.30
2020,12,06,07,04,8.30
2020,12,06,07,05,8.30
2020,12,06,07,06,8.30
2020,12,06,07,07,8.30
2020,12,06,07,08,8.20
2020,12,06,07,09,8.20
2020,12,06,07,10,8.20
2020,12,06,07,11,8.20
2020,12,06,07,12,8.20
2020,12,06,07,13,8.20
2020,12,06,07,14,8.20
2020,12,06,07,15,8.20
2020,12,06,07,16,8.20
2020,12,06,07,17,8.20
2020,12,06,07,18,8.20
2020,12,06,07,19,8.20
2020,12,06,07,20,8.20
2020,12,06,07,21,8.20
2020,12,06,07,22,8.20
2020,12,06,07,23,8.20
2020,12,06,07,24,8.20
2020,12,06,07,25,8.20
2020,12,06,07,26,8.20
2020,12,06,07,27,8.20
2020,12,06,07,28,8.20
2020,12,06,07,29,8.20
2020,12,06,07,30,8.20
2020,12,06,07,31,8.20
2020,12,06,07,32,8.30
2020,12,06,07,33,8.30
2020,12,06,07,34,8.30
2020,12,06,07,35,8.30
2020,12,06,07,36,8.30
2020,12,06,07,37,8.30
2020,12,06,07,38,8.30
2020,12,06,07,39,8.30
2020,12,06,07,40,8.30
2020,12,06,07,41,8.30
2020,12,06,07,42,8.30
2020,12,06,07,43,8.30
2020,12,06,07,44,8.30
2020,12,06,07,45,8.30
2020,12,06,07,46,8.20
2020,12,06,07,47,8.20
2020,12,06,07,48,8.20
2020,12,06,07,49,8.10
2020,12,06,07,50,8.10
2020,12,06,07,51,8.00
2020,12,06,07,52,7.90
2020,12,06,07,53,7.80
2020,12,06,07,54,7.80
2020,12,06,07,55,7.70
2020,12,06,07,56,7.60
2020,12,06,07,57,7.60
2020,12,06,07,58,7.50
2020,12,06,07,59,7.40
2020,12,06,08,00,7.40
2020,12,06,08,01,7.30
2020,12,06,08,02,7.30
2020,12,06,08,03,7.20
2020,12,06,08,04,7.20
2020,12,06,08,05,7.20
2020,12,06,08,06,7.20
2020,12,06,08,07,7.10
2020,12,06,08,08,7.10
2020,12,06,08,09,7.10
2020,12,06,08,10,7.10
2020,12,06,08,11,7.10
2020,12,06,08,12,7.00
2020,12,06,08,13,7.00
2020,12,06,08,14,7.00
2020,12,06,08,15,7.00
2020,12,06,08,16,7.00
2020,12,06,08,17,7.00
2020,12,06,08,18,7.00
2020,12,06,08,19,6.90
2020,12,06,08,20,6.90
2020,12,06,08,21,6.90
2020,12,06,08,22,6.90
2020,12,06,08,23,6.90
2020,12,06,08,24,6.90
2020,12,06,08,25,6.90
2020,12,06,08,26,6.80
2020,12,06,08,27,6.80
2020,12,06,08,28,6.90
2020,12,06,08,29,6.90
2020,12,06,08,30,6.90
2020,12,06,08,31,6.90
2020,12,06,08,32,6.90
2020,12,06,08,33,6.90
2020,12,06,08,34,6.90
2020,12,06,08,35,6.90
2020,12,06,08,36,6.90
2020,12,06,08,37,7.00
2020,12,06,08,38,7.00
2020,12,06,08,39,7.00
2020,12,06,08,40,7.10
2020,12,06,08,41,7.10
2020,12,06,08,42,7.10
2020,12,06,08,43,7.20
2020,12,06,08,44,7.20
2020,12,06,08,45,7.20
2020,12,06,08,46,7.30
2020,12,06,08,47,7.30
2020,12,06,08,48,7.30
2020,12,06,08,49,7.30
2020,12,06,08,50,7.30
2020,12,06,08,51,7.30
2020,12,06,08,52,7.30
2020,12,06,08,53,7.30
2020,12,06,08,54,7.30
2020,12,06,08,55,7.20
2020,12,06,08,56,7.10
2020,12,06,08,57,7.10
2020,12,06,08,58,7.10
2020,12,06,08,59,7.10
2020,12,06,09,00,7.10
2020,12,06,09,01,7.10
2020,12,06,09,02,7.10
2020,12,06,09,03,7.10
2020,12,06,09,04,7.20
2020,12,06,09,05,7.20
2020,12,06,09,06,7.20
2020,12,06,09,07,7.20
2020,12,06,09,08,7.20
2020,12,06,09,09,7.20
2020,12,06,09,10,7.20
2020,12,06,09,11,7.20
2020,12,06,09,12,7.20
2020,12,06,09,13,7.20
2020,12,06,09,14,7.20
2020,12,06,09,15,7.20
2020,12,06,09,16,7.20
2020,12,06,09,17,7.20
2020,12,06,09,18,7.20
2020,12,06,09,19,7.20
2020,12,06,09,20,7.20
2020,12,06,09,21,7.20
2020,12,06,09,22,7.20
2020,12,06,09,23,7.20
2020,12,06,09,24,7.20
2020,12,06,09,25,7.20
2020,12,06,09,26,7.20
2020,12,06,09,27,7.20
2020,12,06,09,28,7.20
2020,12,06,09,29,7.20
2020,12,06,09,30,7.10
2020,12,06,09,31,7.20
2020,12,06,09,32,7.10
2020,12,06,09,33,7.20
2020,12,06,09,34,7.20
2020,12,06,09,35,7.20
2020,12,06,09,36,7.20
2020,12,06,09,37,7.20
2020,12,06,09,38,7.20
2020,12,06,09,39,7.20
2020,12,06,09,40,7.10
2020,12,06,09,41,7.10
2020,12,06,09,42,7.10
2020,12,06,09,43,7.10
2020,12,06,09,44,7.10
2020,12,06,09,45,7.10
2020,12,06,09,46,7.10
2020,12,06,09,47,7.10
2020,12,06,09,48,7.10
2020,12,06,09,49,7.10
2020,12,06,09,50,7.10
2020,12,06,09,51,7.10
2020,12,06,09,52,7.10
2020,12,06,09,53,7.10
2020,12,06,09,54,7.10
2020,12,06,09,55,7.10
2020,12,06,09,56,7.10
2020,12,06,09,57,7.10
2020,12,06,09,58,7.20
2020,12,06,09,59,7.20
2020,12,06,10,00,7.20
2020,12,06,10,01,7.20
2020,12,06,10,02,7.20
2020,12,06,10,03,7.30
2020,12,06,10,04,7.30
2020,12,06,10,05,7.30
2020,12,06,10,06,7.30
2020,12,06,10,07,7.40
2020,12,06,10,08,7.40
2020,12,06,10,09,7.40
2020,12,06,10,10,7.40
2020,12,06,10,11,7.40
2020,12,06,10,12,7.50
2020,12,06,10,13,7.50
2020,12,06,10,14,7.50
2020,12,06,10,15,7.60
2020,12,06,10,16,7.60
2020,12,06,10,17,7.60
2020,12,06,10,18,7.70
2020,12,06,10,19,7.70
2020,12,06,10,20,7.70
2020,12,06,10,21,7.70
2020,12,06,10,22,7.80
2020,12,06,10,23,7.80
2020,12,06,10,24,7.80
2020,12,06,10,25,7.80
2020,12,06,10,26,7.80
2020,12,06,10,27,7.80
2020,12,06,10,28,7.80
2020,12,06,10,29,7.80
2020,12,06,10,30,7.90
2020,12,06,10,31,7.90
2020,12,06,10,32,7.90
2020,12,06,10,33,7.90
2020,12,06,10,34,8.00
2020,12,06,10,35,8.00
2020,12,06,10,36,8.00
2020,12,06,10,37,8.00
2020,12,06,10,38,8.00
2020,12,06,10,39,8.10
2020,12,06,10,40,8.10
2020,12,06,10,41,8.10
2020,12,06,10,42,8.10
2020,12,06,10,43,8.10
2020,12,06,10,44,8.10
2020,12,06,10,45,8.10
2020,12,06,10,46,8.10
2020,12,06,10,47,8.10
2020,12,06,10,48,8.10
2020,12,06,10,49,8.10
2020,12,06,10,50,8.20
2020,12,06,10,51,8.20
2020,12,06,10,52,8.20
2020,12,06,10,53,8.20
2020,12,06,10,54,8.20
2020,12,06,10,55,8.20
2020,12,06,10,56,8.20
2020,12,06,10,57,8.20
2020,12,06,10,58,8.30
2020,12,06,10,59,8.30
2020,12,06,11,00,8.30
2020,12,06,11,01,8.30
2020,12,06,11,02,8.30
2020,12,06,11,03,8.30
2020,12,06,11,04,8.40
2020,12,06,11,05,8.40
2020,12,06,11,06,8.40
2020,12,06,11,07,8.40
2020,12,06,11,08,8.50
2020,12,06,11,09,8.50
2020,12,06,11,10,8.50
2020,12,06,11,11,8.60
2020,12,06,11,12,8.60
2020,12,06,11,13,8.60
2020,12,06,11,14,8.60
2020,12,06,11,15,8.60
2020,12,06,11,16,8.60
2020,12,06,11,17,8.70
2020,12,06,11,18,8.70
2020,12,06,11,19,8.70
2020,12,06,11,20,8.70
2020,12,06,11,21,8.70
2020,12,06,11,22,8.60
2020,12,06,11,23,8.60
2020,12,06,11,24,8.60
2020,12,06,11,25,8.60
2020,12,06,11,26,8.60
2020,12,06,11,27,8.60
2020,12,06,11,28,8.60
2020,12,06,11,29,8.70
2020,12,06,11,30,8.70
2020,12,06,11,31,8.70
2020,12,06,11,32,8.70
2020,12,06,11,33,8.70
2020,12,06,11,34,8.70
2020,12,06,11,35,8.70
2020,12,06,11,36,8.70
2020,12,06,11,37,8.70
2020,12,06,11,38,8.70
2020,12,06,11,39,8.80
2020,12,06,11,40,8.80
2020,12,06,11,41,8.80
2020,12,06,11,42,8.80
2020,12,06,11,43,8.80
2020,12,06,11,44,8.80
2020,12,06,11,45,8.80
2020,12,06,11,46,8.80
2020,12,06,11,47,8.90
2020,12,06,11,48,8.90
2020,12,06,11,49,8.90
2020,12,06,11,50,8.90
2020,12,06,11,51,8.90
2020,12,06,11,52,8.90
2020,12,06,11,53,8.90
2020,12,06,11,54,8.90
2020,12,06,11,55,8.90
2020,12,06,11,56,8.90
2020,12,06,11,57,8.90
2020,12,06,11,58,8.90
2020,12,06,11,59,8.90
2020,12,06,12,00,8.90
2020,12,06,12,01,8.90
2020,12,06,12,02,8.90
2020,12,06,12,03,8.90
2020,12,06,12,04,8.90
2020,12,06,12,05,8.90
2020,12,06,12,06,8.90
2020,12,06,12,07,8.90
2020,12,06,12,08,8.90
2020,12,06,12,09,8.90
2020,12,06,12,10,9.00
2020,12,06,12,11,9.00
2020,12,06,12,12,9.00
2020,12,06,12,13,9.00
2020,12,06,12,14,9.00
2020,12,06,12,15,9.00
2020,12,06,12,16,9.10
2020,12,06,12,17,9.10
2020,12,06,12,18,9.10
2020,12,06,12,19,9.10
2020,12,06,12,20,9.10
2020,12,06,12,21,9.10
2020,12,06,12,22,9.10
2020,12,06,12,23,9.10
2020,12,06,12,24,9.10
2020,12,06,12,25,9.10
2020,12,06,12,26,9.20
2020,12,06,12,27,9.20
2020,12,06,12,28,9.20
2020,12,06,12,29,9.10
2020,12,06,12,30,9.10
2020,12,06,12,31,9.10
2020,12,06,12,32,9.10
2020,12,06,12,33,9.10
2020,12,06,12,34,9.10
2020,12,06,12,35,9.10
2020,12,06,12,36,9.10
2020,12,06,12,37,9.10
2020,12,06,12,38,9.10
2020,12,06,12,39,9.10
2020,12,06,12,40,9.10
2020,12,06,12,41,9.00
2020,12,06,12,42,9.00
2020,12,06,12,43,9.00
2020,12,06,12,44,9.00
2020,12,06,12,45,9.00
2020,12,06,12,46,9.00
2020,12,06,12,47,9.00
2020,12,06,12,48,9.00
2020,12,06,12,49,9.00
2020,12,06,12,50,9.00
2020,12,06,12,51,9.00
2020,12,06,12,52,9.00
2020,12,06,12,53,9.10
2020,12,06,12,54,9.00
2020,12,06,12,55,9.00
2020,12,06,12,56,9.10
2020,12,06,12,57,9.10
2020,12,06,12,58,9.10
2020,12,06,12,59,9.10
2020,12,06,13,00,9.10
2020,12,06,13,01,9.10
2020,12,06,13,02,9.10
2020,12,06,13,03,9.20
2020,12,06,13,04,9.20
2020,12,06,13,05,9.20
2020,12,06,13,06,9.20
2020,12,06,13,07,9.20
2020,12,06,13,08,9.20
2020,12,06,13,09,9.20
2020,12,06,13,10,9.30
2020,12,06,13,11,9.30
2020,12,06,13,12,9.30
2020,12,06,13,13,9.30
2020,12,06,13,14,9.30
2020,12,06,13,15,9.30
2020,12,06,13,16,9.30
2020,12,06,13,17,9.30
2020,12,06,13,18,9.30
2020,12,06,13,19,9.30
2020,12,06,13,20,9.30
2020,12,06,13,21,9.30
2020,12,06,13,22,9.30
2020,12,06,13,23,9.20
2020,12,06,13,24,9.20
2020,12,06,13,25,9.20
2020,12,06,13,26,9.20
2020,12,06,13,27,9.20
2020,12,06,13,28,9.20
2020,12,06,13,29,9.20
2020,12,06,13,30,9.20
2020,12,06,13,31,9.20
2020,12,06,13,32,9.10
2020,12,06,13,33,9.20
2020,12,06,13,34,9.10
2020,12,06,13,35,9.10
2020,12,06,13,36,9.10
2020,12,06,13,37,9.10
2020,12,06,13,38,9.10
2020,12,06,13,39,9.10
2020,12,06,13,40,9.10
2020,12,06,13,41,9.10
2020,12,06,13,42,9.10
2020,12,06,13,43,9.10
2020,12,06,13,44,9.10
2020,12,06,13,45,9.10
2020,12,06,13,46,9.10
2020,12,06,13,47,9.10
2020,12,06,13,48,9.10
2020,12,06,13,49,9.10
2020,12,06,13,50,9.10
2020,12,06,13,51,9.10
2020,12,06,13,52,9.20
2020,12,06,13,53,9.20
2020,12,06,13,54,9.10
2020,12,06,13,55,9.10
2020,12,06,13,56,9.10
2020,12,06,13,57,9.10
2020,12,06,13,58,9.10
2020,12,06,13,59,9.10
2020,12,06,14,00,9.10
2020,12,06,14,01,9.10
2020,12,06,14,02,9.10
2020,12,06,14,03,9.10
2020,12,06,14,04,9.10
2020,12,06,14,05,9.10
2020,12,06,14,06,9.10
2020,12,06,14,07,9.10
2020,12,06,14,08,9.10
2020,12,06,14,09,9.10
2020,12,06,14,10,9.10
2020,12,06,14,11,9.10
2020,12,06,14,12,9.10
2020,12,06,14,13,9.10
2020,12,06,14,14,9.10
2020,12,06,14,15,9.00
2020,12,06,14,16,9.00
2020,12,06,14,17,9.00
2020,12,06,14,18,9.00
2020,12,06,14,19,9.00
2020,12,06,14,20,9.00
2020,12,06,14,21,9.00
2020,12,06,14,22,9.00
2020,12,06,14,23,9.00
2020,12,06,14,24,9.00
2020,12,06,14,25,8.90
2020,12,06,14,26,8.90
2020,12,06,14,27,8.90
2020,12,06,14,28,8.90
2020,12,06,14,29,8.90
2020,12,06,14,30,8.90
2020,12,06,14,31,8.90
2020,12,06,14,32,8.90
2020,12,06,14,33,8.90
2020,12,06,14,34,8.90
2020,12,06,14,35,8.90
2020,12,06,14,36,8.90
2020,12,06,14,37,8.90
2020,12,06,14,38,8.90
2020,12,06,14,39,8.90
2020,12,06,14,40,8.90
2020,12,06,14,41,8.80
2020,12,06,14,42,8.80
2020,12,06,14,43,8.80
2020,12,06,14,44,8.80
2020,12,06,14,45,8.80
2020,12,06,14,46,8.80
2020,12,06,14,47,8.80
2020,12,06,14,48,8.80
2020,12,06,14,49,8.80
2020,12,06,14,50,8.70
2020,12,06,14,51,8.70
2020,12,06,14,52,8.70
2020,12,06,14,53,8.70
2020,12,06,14,54,8.70
2020,12,06,14,55,8.70
2020,12,06,14,56,8.70
2020,12,06,14,57,8.70
2020,12,06,14,58,8.70
2020,12,06,14,59,8.70
2020,12,06,15,00,8.70
2020,12,06,15,01,8.70
2020,12,06,15,02,8.70
2020,12,06,15,03,8.70
2020,12,06,15,04,8.70
2020,12,06,15,05,8.70
2020,12,06,15,06,8.70
2020,12,06,15,07,8.70
2020,12,06,15,08,8.70
2020,12,06,15,09,8.60
2020,12,06,15,10,8.60
2020,12,06,15,11,8.60
2020,12,06,15,12,8.60
2020,12,06,15,13,8.60
2020,12,06,15,14,8.60
2020,12,06,15,15,8.60
2020,12,06,15,16,8.60
2020,12,06,15,17,8.60
2020,12,06,15,18,8.60
2020,12,06,15,19,8.60
2020,12,06,15,20,8.60
2020,12,06,15,21,8.60
2020,12,06,15,22,8.60
2020,12,06,15,23,8.60
2020,12,06,15,24,8.60
2020,12,06,15,25,8.60
2020,12,06,15,26,8.60
2020,12,06,15,27,8.60
2020,12,06,15,28,8.60
2020,12,06,15,29,8.60
2020,12,06,15,30,8.60
2020,12,06,15,31,8.60
2020,12,06,15,32,8.60
2020,12,06,15,33,8.60
2020,12,06,15,34,8.60
2020,12,06,15,35,8.60
2020,12,06,15,36,8.60
2020,12,06,15,37,8.60
2020,12,06,15,38,8.60
2020,12,06,15,39,8.60
2020,12,06,15,40,8.60
2020,12,06,15,41,8.60
2020,12,06,15,42,8.60
2020,12,06,15,43,8.60
2020,12,06,15,44,8.60
2020,12,06,15,45,8.60
2020,12,06,15,46,8.50
2020,12,06,15,47,8.50
2020,12,06,15,48,8.50
2020,12,06,15,49,8.50
2020,12,06,15,50,8.50
2020,12,06,15,51,8.50
2020,12,06,15,52,8.50
2020,12,06,15,53,8.50
2020,12,06,15,54,8.50
2020,12,06,15,55,8.50
2020,12,06,15,56,8.50
2020,12,06,15,57,8.50
2020,12,06,15,58,8.50
2020,12,06,15,59,8.50
2020,12,06,16,00,8.50
2020,12,06,16,01,8.50
2020,12,06,16,02,8.50
2020,12,06,16,03,8.40
2020,12,06,16,04,8.40
2020,12,06,16,05,8.40
2020,12,06,16,06,8.40
2020,12,06,16,07,8.40
2020,12,06,16,08,8.40
2020,12,06,16,09,8.40
2020,12,06,16,10,8.40
2020,12,06,16,11,8.40
2020,12,06,16,12,8.40
2020,12,06,16,13,8.40
2020,12,06,16,14,8.40
2020,12,06,16,15,8.40
2020,12,06,16,16,8.40
2020,12,06,16,17,8.40
2020,12,06,16,18,8.40
2020,12,06,16,19,8.40
2020,12,06,16,20,8.40
2020,12,06,16,21,8.30
2020,12,06,16,22,8.30
2020,12,06,16,23,8.30
2020,12,06,16,24,8.30
2020,12,06,16,25,8.30
2020,12,06,16,26,8.30
2020,12,06,16,27,8.30
2020,12,06,16,28,8.30
2020,12,06,16,29,8.30
2020,12,06,16,30,8.30
2020,12,06,16,31,8.30
2020,12,06,16,32,8.30
2020,12,06,16,33,8.30
2020,12,06,16,34,8.30
2020,12,06,16,35,8.30
2020,12,06,16,36,8.20
2020,12,06,16,37,8.20
2020,12,06,16,38,8.20
2020,12,06,16,39,8.20
2020,12,06,16,40,8.20
2020,12,06,16,41,8.20
2020,12,06,16,42,8.20
2020,12,06,16,43,8.20
2020,12,06,16,44,8.20
2020,12,06,16,45,8.20
2020,12,06,16,46,8.20
2020,12,06,16,47,8.20
2020,12,06,16,48,8.20
2020,12,06,16,49,8.20
2020,12,06,16,50,8.20
2020,12,06,16,51,8.20
2020,12,06,16,52,8.20
2020,12,06,16,53,8.20
2020,12,06,16,54,8.20
2020,12,06,16,55,8.20
2020,12,06,16,56,8.20
2020,12,06,16,57,8.10
2020,12,06,16,58,8.10
2020,12,06,16,59,8.10
2020,12,06,17,00,8.10
2020,12,06,17,01,8.10
2020,12,06,17,02,8.10
2020,12,06,17,03,8.10
2020,12,06,17,04,8.10
2020,12,06,17,05,8.10
2020,12,06,17,06,8.10
2020,12,06,17,07,8.10
2020,12,06,17,08,8.10
2020,12,06,17,09,8.10
2020,12,06,17,10,8.10
2020,12,06,17,11,8.10
2020,12,06,17,12,8.10
2020,12,06,17,13,8.10
2020,12,06,17,14,8.10
2020,12,06,17,15,8.10
2020,12,06,17,16,8.10
2020,12,06,17,17,8.10
2020,12,06,17,18,8.10
2020,12,06,17,19,8.10
2020,12,06,17,20,8.10
2020,12,06,17,21,8.10
2020,12,06,17,22,8.10
2020,12,06,17,23,8.10
2020,12,06,17,24,8.10
2020,12,06,17,25,8.10
2020,12,06,17,26,8.10
2020,12,06,17,27,8.10
2020,12,06,17,28,8.10
2020,12,06,17,29,8.10
2020,12,06,17,30,8.10
2020,12,06,17,31,8.10
2020,12,06,17,32,8.00
2020,12,06,17,33,8.00
2020,12,06,17,34,8.00
2020,12,06,17,35,8.00
2020,12,06,17,36,8.10
2020,12,06,17,37,8.10
2020,12,06,17,38,8.10
2020,12,06,17,39,8.10
2020,12,06,17,40,8.10
2020,12,06,17,41,8.10
2020,12,06,17,42,8.10
2020,12,06,17,43,8.10
2020,12,06,17,44,8.00
2020,12,06,17,45,8.00
2020,12,06,17,46,8.00
2020,12,06,17,47,8.00
2020,12,06,17,48,8.00
2020,12,06,17,49,8.00
2020,12,06,17,50,8.00
2020,12,06,17,51,8.00
2020,12,06,17,52,8.00
2020,12,06,17,53,8.10
2020,12,06,17,54,8.10
2020,12,06,17,55,8.10
2020,12,06,17,56,8.10
2020,12,06,17,57,8.00
2020,12,06,17,58,8.00
2020,12,06,17,59,8.00
2020,12,06,18,00,8.00
2020,12,06,18,01,8.10
2020,12,06,18,02,8.10
2020,12,06,18,03,8.10
2020,12,06,18,04,8.10
2020,12,06,18,05,8.10
2020,12,06,18,06,8.10